Regional Weather Roundup
Issued by NWS

Current Version | Previous Version | Text Only | Print | Product List | Glossary Off
Versions: 1 2 3 4 5 6 7 8 9 10 11 12 13 14 15 16 17 18 19 20 21 22 23 24 25 26 27 28 29 30 31 32 33 34 35 36 37 38 39 40 41 42 43 44 45 46 47 48 49 50

000
ASUS42 KFFC 291210
RWRGA
WEATHER ROUNDUP FOR GEORGIA
NATIONAL WEATHER SERVICE PEACHTREE CITY GA
800 AM EDT THU JUN 29 2017

NOTE: "FAIR" INDICATES FEW OR NO CLOUDS BELOW 12,000 FEET WITH NO
SIGNIFICANT WEATHER AND/OR OBSTRUCTIONS TO VISIBILITY.

* = USE WITH CAUTION. THE STATIONS MARKED WITH AN ASTERISK MAY NOT
REPORT WEATHER SUCH AS PRECIPITATION, FOG, OR THUNDER AND ARE NOT
QUALITY CONTROLLED BY NWS.

THE REMARK "TC" DENOTES TEMPERATURE READING IN DEGREES CELSIUS.

GAZ001>058-291300-
NORTH GEORGIA

CITY           SKY/WX    TMP DP  RH WIND       PRES   REMARKS
ATLANTA        PTSUNNY   72  68  87 E7        30.17S
6HR MIN TEMP:  72; 6HR MAX TEMP:  75;

ATHENS         PTSUNNY   70  69  97 E3        30.19S
6HR MIN TEMP:  66; 6HR MAX TEMP:  71;

CHAMBLEE       PTSUNNY   72  67  84 CALM      30.18S
6HR MIN TEMP:  71; 6HR MAX TEMP:  72;

PEACHTREE CITY PTSUNNY   72  69  90 E5        30.17S
6HR MIN TEMP:  69; 6HR MAX TEMP:  72;

ROME           CLOUDY    73  69  87 CALM      30.15S
6HR MIN TEMP:  68; 6HR MAX TEMP:  73; 6HR PCP: TRACE;

WEST ATLANTA   CLOUDY    73  69  87 CALM      30.16F
6HR MIN TEMP:  71; 6HR MAX TEMP:  76;

GAINESVILLE    CLOUDY    70  68  93 E6        30.22S
6HR MIN TEMP:  68; 6HR MAX TEMP:  70;

CARTERSVILLE   CLOUDY    72  69  90 E3        30.17R
6HR MIN TEMP:  66; 6HR MAX TEMP:  72;



CITY           SKY/WX    TMP DP  RH WIND       PRES   REMARKS
DALTON*        CLOUDY    72  68  88 SE5       30.16R
LAWRENCEVILLE* MOSUNNY   70  66  88 VRB5      30.20S
MARIETTA       CLOUDY    72  67  83 SE10      30.17S
KENNESAW*      PTSUNNY   72  68  88 E6        30.20R
CANTON*        CLOUDY    72  70  94 CALM      30.21S
$$

GAZ059>098-102>109-291300-
CENTRAL GEORGIA

CITY           SKY/WX    TMP DP  RH WIND       PRES   REMARKS
AUGUSTA-BUSH   CLOUDY    74  67  78 CALM      30.18R
6HR MIN TEMP:  67; 6HR MAX TEMP:  74;

AUGUSTA-DANIEL CLOUDY    74  62  66 SE3       30.20R
6HR MIN TEMP:  73; 6HR MAX TEMP:  75;

COLUMBUS       LGT RAIN  75  70  84 E6        30.13R
6HR MIN TEMP:  75; 6HR MAX TEMP:  78; 6HR PCP: TRACE;

MACON          CLOUDY    73  69  87 NE3       30.17R
6HR MIN TEMP:  71; 6HR MAX TEMP:  75;

ROBINS AFB     CLOUDY    73  70  89 E3        30.16R


CITY           SKY/WX    TMP DP  RH WIND       PRES   REMARKS
LAGRANGE*      CLOUDY    75  74  97 SE3       30.14S
SYLVANIA*      CLOUDY    75  70  85 E6        30.19R
MILLEDGEVILLE* CLOUDY    73  68  83 E3        30.17S
$$

GAZ099>101-110>166-291300-
SOUTH GEORGIA

CITY           SKY/WX    TMP DP  RH WIND       PRES   REMARKS
SAVANNAH       CLOUDY    79  71  76 E5        30.17R
6HR MIN TEMP:  73; 6HR MAX TEMP:  79;

VALDOSTA       MOSUNNY   74  73  97 E3        30.12R
6HR MIN TEMP:  73; 6HR MAX TEMP:  74;

ALMA           CLOUDY    76  72  87 E3        30.14R
6HR MIN TEMP:  72; 6HR MAX TEMP:  76;

ST SIMONS      CLOUDY    81  75  82 E7        30.14R
6HR MIN TEMP:  79; 6HR MAX TEMP:  81;

FT STEWART     MOSUNNY   74  72  92 NE3       30.14R
ALBANY         PTSUNNY   76  73  91 E6        30.14R
HUNTER AFB     CLOUDY    80  73  78 CALM      30.13R
MOODY AFB      MOSUNNY   73  72  96 CALM      30.11R
BRUNSWICK      CLOUDY    77  77 100 CALM      30.15R


CITY           SKY/WX    TMP DP  RH WIND       PRES   REMARKS
BAINBRIDGE*    CLOUDY    77  77 100 E3        30.10R
MOULTRIE*      PTSUNNY   73  72  94 E3        30.13R
VIDALIA*       CLOUDY    75  72  88 E7        30.17R
WAYCROSS*      CLOUDY    76  76 100 E3        30.14R
DOUGLAS*       CLOUDY    73  72  94 E5        30.16R
$$



USA.gov is the U.S. government's official web portal to all federal, state and local government web resources and services.